Regional Weather Roundup
Issued by NWS

Home | Current Version | Previous Version | Text Only | Print | Product List | Glossary Off
Versions: 1 2 3 4 5 6 7 8 9 10 11 12 13 14 15 16 17 18 19 20 21 22 23 24 25 26 27 28 29 30 31 32 33 34 35 36 37 38 39 40 41 42 43 44 45 46 47 48 49 50

000
ASUS43 KOAX 310510
RWRNE

WEATHER ROUNDUP FOR NEBRASKA
NATIONAL WEATHER SERVICE OMAHA NE
1100 PM CST FRI JAN 30 2015

NOTES: SATELLITE DATA IS BEING USED TO AUGMENT CLOUD COVER ABOVE
       12000 FEET.
       "FAIR" INDICATES FEW OR NO CLOUDS BELOW 12,000 FEET WITH NO
       SIGNIFICANT WEATHER AND/OR OBSTRUCTIONS TO VISIBILITY.

  * THESE STATIONS DO NOT REPORT WEATHER SUCH AS RAIN...SNOW OR FOG.

NEZ001>004-019>022-054>056-310600-
NEBRASKA PANHANDLE

CITY           SKY/WX    TMP DP  RH WIND       PRES   REMARKS
SCOTTSBLUFF    CLOUDY    36  27  69 NW6       30.07F WCI  31
ALLIANCE       CLOUDY    31  26  82 CALM      30.06F
CHADRON        CLOUDY    28  24  85 W5        30.10F WCI  23
KIMBALL        CLOUDY    35  28  74 N6        30.04S WCI  30
SIDNEY         CLOUDY    33  26  75 NW6       30.06S WCI  28
$$

NEZ057>060-069>072-079>082-310600-
SOUTHWEST NEBRASKA

CITY           SKY/WX    TMP DP  RH WIND       PRES   REMARKS
NORTH PLATTE   CLOUDY    38  32  79 S12       30.13S WCI  30
IMPERIAL       CLOUDY    37  31  78 S9        30.10S WCI  30
LEXINGTON      CLOUDY    38  33  82 S10       30.18F WCI  31
MCCOOK         CLOUDY    36  34  92 S7        30.16F WCI  30
OGALLALA       CLOUDY    37  32  83 S5        30.10S WCI  33
$$

NEZ005>010-023>029-035>040-094-310600-
NORTH CENTRAL NEBRASKA

CITY           SKY/WX    TMP DP  RH WIND       PRES   REMARKS
VALENTINE      CLOUDY    31  26  82 CALM      30.10F
AINSWORTH      CLOUDY    36  28  73 SW7       30.10F WCI  30
BROKEN BOW     CLOUDY    39  31  72 S10       30.15F WCI  32
O`NEILL        CLOUDY    34  28  78 S7        30.14F WCI  28
ORD            CLOUDY    41  30  65 S14       30.16F
THEDFORD       CLOUDY    38  32  78 S5        30.11F WCI  34
$$

NEZ041-046>049-061>064-073>077-083>087-310600-
SOUTH CENTRAL NEBRASKA

CITY           SKY/WX    TMP DP  RH WIND       PRES   REMARKS
GRAND ISLAND   CLOUDY    40  32  73 SW21      30.22S WCI  30
AURORA         CLOUDY    40  33  74 SW20G26   30.22S WCI  31
HASTINGS       CLOUDY    37  32  82 SW10      30.23S WCI  30
HEBRON         DRIZZLE   38  33  83 SW14      30.28R WCI  30
HOLDREGE       CLOUDY    35  33  92 S12       30.20F WCI  26
KEARNEY *      CLOUDY    36  30  80 S14       30.22S WCI  27
YORK           CLOUDY    37  28  70 S7        30.24S WCI  32
$$

NEZ011>018-030>034-042>045-310600-
NORTHEAST NEBRASKA

CITY           SKY/WX    TMP DP  RH WIND       PRES   REMARKS
NORFOLK        CLOUDY    37  27  67 SW9       30.17F WCI  30
ALBION         CLOUDY    35  26  71 SE5       30.18F WCI  31
BLAIR          CLOUDY    37  26  67 S16       30.23S WCI  27
COLUMBUS *     CLOUDY    37  25  60 SW8       30.22S WCI  31
FREMONT        CLOUDY    37  28  68 S10       30.22F WCI  30
TEKAMAH        CLOUDY    35  26  69 S13       30.22F WCI  26
WAYNE          MOCLDY    34  28  77 S9        30.18F WCI  27
$$

NEZ050>053-065>068-078-088>093-310600-
SOUTHEAST NEBRASKA

CITY           SKY/WX    TMP DP  RH WIND       PRES   REMARKS
LINCOLN        CLOUDY    37  26  64 S9        30.27F WCI  30
OMAHA EPPLEY   CLOUDY    32  25  75 S8        30.26F WCI  25
BEATRICE       CLOUDY    38  27  64 SW12      30.27F WCI  30
FALLS CITY     CLOUDY    32  22  66 SE6       30.31F WCI  26
NEBRASKA CITY  CLOUDY    32  22  67 S10       30.28F WCI  24
PLATTSMOUTH    CLOUDY    32  23  70 S8        30.26F WCI  25
$$

NEZ044-045-051>053-067-310600-
OMAHA AREA

CITY           SKY/WX    TMP DP  RH WIND       PRES   REMARKS
OMAHA EPPLEY   CLOUDY    32  25  75 S8        30.26F WCI  25
BLAIR          CLOUDY    37  26  67 S16       30.23S WCI  27
FREMONT        CLOUDY    37  28  68 S10       30.22F WCI  30
MILLARD        CLOUDY    37  26  66 S7        30.25F WCI  31
OFFUTT AFB     CLOUDY    35  25  68 S8        30.26F WCI  28
PLATTSMOUTH    CLOUDY    32  23  70 S8        30.26F WCI  25
WAHOO          CLOUDY    36  26  66 S9        30.24F WCI  29
$$



USA.gov is the U.S. government's official web portal to all federal, state and local government web resources and services.